This demonstration page uses our WeatherBlox Daily Observations layout. Learn more.

Left ArrowRight Arrow

Hourly Observations for August 22, 2017

Temp ( °F °C ) Dew Point ( °F °C ) Humidity (%) Winds ( mph kmh ) Pressure ( in mb ) Visibility ( mi km ) Precip ( " mm )
12:52 am 00:52 Clear 77 25 74 23.3 90 90 S 15 24 29.97 1015 10 16 0.00 0.00
1:52 am 01:52 Clear 78 25.6 74 23.3 87 87 SSW 14 22 29.96 1015 10 16 0.00 0.00
2:52 am 02:52 Clear 78 25.6 73 22.8 85 85 SSW 12 19 29.95 1014 10 16 0.00 0.00
3:52 am 03:52 Clear 78 25.6 73 22.8 85 85 SSW 10 17 29.95 1014 10 16 0.00 0.00
4:52 am 04:52 Mostly Clear 77 25 72 22.2 85 85 SSW 15 24 29.93 1014 10 16 0.00 0.00
5:52 am 05:52 Partly Cloudy 77 25 72 22.2 85 85 SW 21 33 29.93 1014 10 16 0.00 0.00
6:31 am 06:31 Cloudy with Nearby Thunderstorms 76 24.4 70 21.1 82 82 NNW 28 44 30.00 1016 9 14 0.00 0.03
6:45 am 06:45 Cloudy with Nearby Thunderstorms 70 21.1 69 20.6 97 97 NNW 17 28 30.06 1018 3 4 0.05 1.27
6:52 am 06:52 Cloudy with Thunderstorms 69 20.6 69 20.6 100 100 NW 12 19 30.04 1017 3 5 0.11 2.79
6:58 am 06:58 Cloudy with Strong Thunderstorms 69 20.6 69 20.6 100 100 NW 8 13 30.06 1018 2 3 0.08 2.03
7:20 am 07:20 Cloudy with Strong Thunderstorms 69 20.6 69 20.6 100 100 W 7 11 30.06 1018 3 4 0.27 6.86
7:23 am 07:23 Cloudy with Rain 69 20.6 69 20.6 100 100 W 8 13 30.06 1018 4 6 0.28 7.11
7:45 am 07:45 Mostly Cloudy with Nearby Thunderstorms 68 20 68 20 100 100 WSW 9 15 30.06 1018 10 16 0.29 7.37
7:52 am 07:52 Mostly Cloudy with Nearby Thunderstorms 68 20 68 20 100 100 W 8 13 30.05 1018 10 16 0.30 7.62
8:11 am 08:11 Partly Cloudy with Light Rain 68 20 67 19.4 96 96 W 5 7 30.06 1018 10 16 0.00 0.03
8:52 am 08:52 Mostly Cloudy with Light Rain 67 19.4 67 19.4 100 100 WSW 10 17 30.07 1018 10 16 0.01 0.25
9:37 am 09:37 Partly Cloudy with Light Rain 67 19.4 67 19.4 100 100 SW 10 17 30.06 1018 10 16 0.01 0.25
9:52 am 09:52 Mostly Cloudy with Light Rain 67 19.4 67 19.4 100 100 SSW 12 19 30.03 1017 10 16 0.01 0.25
10:17 am 10:17 Partly Cloudy 67 19.4 67 19.4 100 100 W 9 15 30.09 1019 10 16 0.00 0.03
10:52 am 10:52 Sunny 67 19.4 67 19.4 100 100 S 3 6 30.08 1019 10 16 0.00 0.03
11:52 am 11:52 Sunny 69 20.6 69 20.6 100 100 SE 3 6 30.06 1018 10 16 0.00 0.00
12:52 pm 12:52 Sunny 76 24.4 70 21.1 82 82 Calm 30.04 1017 10 16 0.00 0.00
1:52 pm 13:52 Sunny 81 27.2 69 20.6 67 67 NNW 7 11 30.03 1017 10 16 0.00 0.00
2:52 pm 14:52 Sunny 83 28.3 70 21.1 65 65 N 9 15 30.02 1017 10 16 0.00 0.00
3:52 pm 15:52 Cloudy 81 27.2 70 21.1 69 69 NNW 8 13 30.02 1017 10 16 0.00 0.00
4:52 pm 16:52 Cloudy 81 27.2 69 20.6 67 67 NW 8 13 30.01 1016 10 16 0.00 0.00
5:52 pm 17:52 Cloudy 79 26.1 71 21.7 77 77 N 8 13 30.01 1016 10 16 0.00 0.00
6:52 pm 18:52 Cloudy 78 25.6 72 22.2 82 82 N 8 13 30.00 1016 10 16 0.00 0.00
7:52 pm 19:52 Cloudy 77 25 72 22.2 85 85 N 5 7 30.01 1016 10 16 0.00 0.00
8:52 pm 20:52 Cloudy 76 24.4 72 22.2 88 88 N 7 11 30.04 1017 10 16 0.00 0.00
9:52 pm 21:52 Cloudy 74 23.3 68 20 82 82 NNE 10 17 30.04 1017 10 16 0.00 0.00
10:52 pm 22:52 Cloudy 73 22.8 66 18.9 79 79 NNE 10 17 30.07 1018 10 16 0.00 0.00
11:52 pm 23:52 Clear 70 21.1 64 17.8 82 82 NNE 8 13 30.08 1019 10 16 0.00 0.00

Powered by AerisWeather